Check out our new BloomSky Weather System.

Active alerts

Houston, TX
  Details for Houston, TX Dense Fog Advisory


Thunder radar  blitzortung!


Rain radar more information rain snow radar


Visit our other weather sites:

Template documentation
and downloads

And another site



Weather Underground History page Text

Daily Summary for January 20, 2017 Units:  Metric    English   Both
« Previous Day
Next Day »
Daily Weekly Monthly Yearly Custom
  High: Low: Average:
Temperature: 24.7 °C 13.7 °C 18.7 °C
Dew Point: 19.8 °C 13.2 °C 17.2 °C
Humidity: 100 % 69 % 92 %
Wind Speed: 16.1 km/h 0 km/h 3.2 km/h
Wind Gust: 19.3 km/h - -
Wind:- - SSW
Pressure: 1010 hPa 1003.3 hPa -
Precipitation: 14.22 mm    
Historical Graphs
 
 
Tabular Data for January 20, 2017
Time Temperature Dew Point Pressure Wind Wind Speed Wind Gust Humidity Rainfall Rate (Hourly)
00:00 13.7 °C 13.2 °C 1007.3 hPa Calm     97 % 0 mm
00:06 13.7 °C 13.4 °C 1007.3 hPa Calm     98 % 0 mm
00:11 13.9 °C 13.6 °C 1007.3 hPa Calm     98 % 0 mm
00:16 14.1 °C 13.8 °C 1007.3 hPa SSW 1.6 km/h   98 % 0 mm
00:21 14.2 °C 14 °C 1007.3 hPa Calm   1.6 km/h 99 % 0 mm
00:26 14.4 °C 14.2 °C 1007 hPa SE 1.6 km/h 3.2 km/h 99 % 0 mm
00:31 14.8 °C 14.6 °C 1007 hPa South 1.6 km/h 3.2 km/h 99 % 0 mm
00:36 14.9 °C 14.7 °C 1007 hPa SSW 3.2 km/h 3.2 km/h 99 % 0 mm
00:41 15.2 °C 15 °C 1006.7 hPa Calm   3.2 km/h 99 % 0 mm
00:46 15.3 °C 15.1 °C 1006.7 hPa SSW 1.6 km/h 4.8 km/h 99 % 0 mm
00:51 15.3 °C 15.1 °C 1006.7 hPa South 3.2 km/h 4.8 km/h 99 % 0 mm
00:57 15.4 °C 15.2 °C 1006.7 hPa SW 9.7 km/h 9.7 km/h 99 % 0 mm
01:02 15.5 °C 15.3 °C 1006.7 hPa South 1.6 km/h 11.3 km/h 99 % 0 mm
01:07 15.5 °C 15.3 °C 1006.7 hPa SSW 3.2 km/h 11.3 km/h 99 % 0 mm
01:12 15.6 °C 15.4 °C 1006.7 hPa SSW 3.2 km/h 11.3 km/h 99 % 0 mm
01:17 15.5 °C 15.3 °C 1006.7 hPa SW 1.6 km/h 8 km/h 99 % 0 mm
01:22 15.6 °C 15.4 °C 1006.7 hPa SW 3.2 km/h 8 km/h 99 % 0 mm
01:27 15.6 °C 15.4 °C 1006.7 hPa SW 3.2 km/h 8 km/h 99 % 0 mm
01:32 15.6 °C 15.4 °C 1006.7 hPa SSW 4.8 km/h 6.4 km/h 99 % 0 mm
01:37 15.6 °C 15.4 °C 1006.7 hPa South 6.4 km/h 9.7 km/h 99 % 0 mm
01:42 15.6 °C 15.4 °C 1007 hPa South 6.4 km/h 9.7 km/h 99 % 0 mm
01:47 15.6 °C 15.4 °C 1007 hPa SSW 4.8 km/h 14.5 km/h 99 % 0 mm
01:52 15.6 °C 15.4 °C 1007 hPa SSW 6.4 km/h 14.5 km/h 99 % 0 mm
01:57 15.6 °C 15.4 °C 1007 hPa South 4.8 km/h 14.5 km/h 99 % 0 mm
02:01 15.6 °C 15.4 °C 1007 hPa SSE 3.2 km/h 8 km/h 99 % 0 mm
02:07 15.6 °C 15.4 °C 1007 hPa South 4.8 km/h 8 km/h 99 % 0 mm
02:12 15.6 °C 15.4 °C 1007 hPa Calm   9.7 km/h 99 % 0 mm
02:17 15.6 °C 15.4 °C 1007 hPa SSW 9.7 km/h 9.7 km/h 99 % 0 mm
02:22 15.6 °C 15.4 °C 1007 hPa SSW 1.6 km/h 9.7 km/h 99 % 0 mm
02:27 15.7 °C 15.5 °C 1007.3 hPa South 4.8 km/h 9.7 km/h 99 % 0 mm
02:32 15.7 °C 15.5 °C 1007 hPa SSW 4.8 km/h 11.3 km/h 99 % 0 mm
02:37 15.7 °C 15.5 °C 1007 hPa SSE 1.6 km/h 11.3 km/h 99 % 0 mm
02:42 15.8 °C 15.6 °C 1007 hPa SW 6.4 km/h 11.3 km/h 99 % 0 mm
02:47 15.8 °C 15.6 °C 1007 hPa SW 3.2 km/h 11.3 km/h 99 % 0 mm
02:52 15.8 °C 15.6 °C 1007 hPa SW 6.4 km/h 14.5 km/h 99 % 0 mm
02:57 15.8 °C 15.6 °C 1007 hPa SW 11.3 km/h 14.5 km/h 99 % 0 mm
03:02 15.8 °C 15.6 °C 1007 hPa SSW 16.1 km/h 16.1 km/h 99 % 0 mm
03:07 15.8 °C 15.6 °C 1007 hPa SW 6.4 km/h 16.1 km/h 99 % 0 mm
03:12 15.8 °C 15.6 °C 1007 hPa SE 3.2 km/h 16.1 km/h 99 % 0 mm
03:17 15.9 °C 15.7 °C 1007 hPa SW 3.2 km/h 16.1 km/h 99 % 0 mm
03:22 15.9 °C 15.7 °C 1007 hPa SSW 6.4 km/h 12.9 km/h 99 % 0 mm
03:27 15.9 °C 15.7 °C 1007 hPa South 3.2 km/h 12.9 km/h 99 % 0 mm
03:32 15.9 °C 15.7 °C 1007 hPa SSE 8 km/h 12.9 km/h 99 % 0 mm
03:37 16 °C 15.8 °C 1007 hPa SE 9.7 km/h 14.5 km/h 99 % 0 mm
03:42 16 °C 15.8 °C 1007 hPa SSW 8 km/h 14.5 km/h 99 % 0 mm
03:47 15.9 °C 15.7 °C 1007 hPa SSW 6.4 km/h 14.5 km/h 99 % 0 mm
03:52 15.9 °C 15.7 °C 1007 hPa South 3.2 km/h 17.7 km/h 99 % 0 mm
03:57 15.9 °C 15.7 °C 1007 hPa SSE 4.8 km/h 17.7 km/h 99 % 0 mm
03:59 15.9 °C 15.7 °C 1007 hPa WSW 4.8 km/h 17.7 km/h 99 % 0 mm
04:04 16 °C 15.8 °C 1007.3 hPa South 3.2 km/h 17.7 km/h 99 % 0 mm
04:09 16 °C 16 °C 1007.3 hPa SSW 1.6 km/h 14.5 km/h 100 % 0 mm
04:14 16 °C 16 °C 1007.3 hPa SW 3.2 km/h 11.3 km/h 100 % 0 mm
04:19 16 °C 16 °C 1007.3 hPa SW 4.8 km/h 11.3 km/h 100 % 0 mm
04:24 16.1 °C 16.1 °C 1007.3 hPa SSW 4.8 km/h 11.3 km/h 100 % 0 mm
04:29 16.1 °C 16.1 °C 1007 hPa SSW 3.2 km/h 11.3 km/h 100 % 0 mm
04:34 16.1 °C 16.1 °C 1007.3 hPa SSE 8 km/h 11.3 km/h 100 % 0 mm
04:39 16.1 °C 16.1 °C 1007.3 hPa SSW 3.2 km/h 9.7 km/h 100 % 0 mm
04:44 16.1 °C 16.1 °C 1007.3 hPa SSW 3.2 km/h 9.7 km/h 100 % 0 mm
04:49 16.1 °C 16.1 °C 1007.3 hPa SW 3.2 km/h 9.7 km/h 100 % 0 mm
04:54 16 °C 16 °C 1007 hPa SSW 8 km/h 11.3 km/h 100 % 0 mm
04:59 16 °C 16 °C 1007 hPa SSE 3.2 km/h 11.3 km/h 100 % 0 mm
05:04 16.1 °C 16.1 °C 1007.3 hPa SSW 3.2 km/h 11.3 km/h 100 % 0 mm
05:09 16 °C 16 °C 1007.3 hPa SW 6.4 km/h 11.3 km/h 100 % 0 mm
05:14 16.1 °C 16.1 °C 1007.3 hPa SSW 8 km/h 11.3 km/h 100 % 0 mm
05:19 16 °C 16 °C 1007.3 hPa SSE 6.4 km/h 11.3 km/h 100 % 0 mm
05:24 16 °C 16 °C 1007.3 hPa South 6.4 km/h 11.3 km/h 100 % 0 mm
05:29 16 °C 16 °C 1007.3 hPa ESE 4.8 km/h 11.3 km/h 100 % 0 mm
05:34 16 °C 16 °C 1007 hPa SW 8 km/h 11.3 km/h 100 % 0 mm
05:39 15.9 °C 15.7 °C 1007.3 hPa SSW 8 km/h 9.7 km/h 99 % 0 mm
05:44 15.9 °C 15.7 °C 1007.3 hPa SSW 1.6 km/h 11.3 km/h 99 % 0 mm
05:49 15.9 °C 15.7 °C 1007.3 hPa SSE 4.8 km/h 11.3 km/h 99 % 0 mm
05:55 15.9 °C 15.7 °C 1007.3 hPa SSE 3.2 km/h 11.3 km/h 99 % 0 mm
06:00 15.8 °C 15.6 °C 1007.3 hPa SSE 3.2 km/h 6.4 km/h 99 % 0 mm
06:04 15.7 °C 15.5 °C 1007.3 hPa South 8 km/h 8 km/h 99 % 0 mm
06:10 15.7 °C 15.5 °C 1007.3 hPa South 4.8 km/h 12.9 km/h 99 % 0 mm
06:15 15.6 °C 15.4 °C 1007.3 hPa SSW 1.6 km/h 12.9 km/h 99 % 0 mm
06:20 15.6 °C 15.4 °C 1007.3 hPa South 1.6 km/h 12.9 km/h 99 % 0 mm
06:25 15.6 °C 15.4 °C 1007.3 hPa Calm   8 km/h 99 % 0 mm
06:30 15.6 °C 15.4 °C 1007.7 hPa Calm   4.8 km/h 99 % 0 mm
06:35 15.6 °C 15.4 °C 1007.7 hPa SW 1.6 km/h 4.8 km/h 99 % 0 mm
06:40 15.6 °C 15.4 °C 1007.7 hPa SSE 1.6 km/h 4.8 km/h 99 % 0 mm
06:45 15.6 °C 15.4 °C 1007.7 hPa SSW 3.2 km/h 3.2 km/h 99 % 0 mm
06:50 15.5 °C 15.3 °C 1008 hPa SSW 3.2 km/h 4.8 km/h 99 % 0 mm
06:55 15.5 °C 15.3 °C 1007.7 hPa SSE 3.2 km/h 4.8 km/h 99 % 0 mm
07:00 15.5 °C 15.3 °C 1007.7 hPa SSE 4.8 km/h 4.8 km/h 99 % 0 mm
07:05 15.5 °C 15.3 °C 1008 hPa SSW 6.4 km/h 8 km/h 99 % 0 mm
07:10 15.4 °C 15.2 °C 1008 hPa Calm   8 km/h 99 % 0 mm
07:15 15.5 °C 15.3 °C 1008 hPa Calm   8 km/h 99 % 0 mm
07:20 15.5 °C 15.3 °C 1008 hPa South 1.6 km/h 6.4 km/h 99 % 0 mm
07:25 15.4 °C 15.2 °C 1008 hPa SE 1.6 km/h 3.2 km/h 99 % 0 mm
07:30 15.4 °C 15.2 °C 1008 hPa South 3.2 km/h 6.4 km/h 99 % 0 mm
07:35 15.4 °C 15.2 °C 1008.4 hPa Calm   6.4 km/h 99 % 0 mm
07:40 15.4 °C 15.2 °C 1008.4 hPa SSW 1.6 km/h 6.4 km/h 99 % 0 mm
07:45 15.4 °C 15.2 °C 1008.4 hPa South 1.6 km/h 6.4 km/h 99 % 0 mm
07:50 15.4 °C 15.2 °C 1008.4 hPa South 4.8 km/h 6.4 km/h 99 % 0 mm
07:55 15.4 °C 15.2 °C 1008.7 hPa SSE 1.6 km/h 8 km/h 99 % 0 mm
08:00 15.4 °C 15.2 °C 1008.7 hPa SW 3.2 km/h 8 km/h 99 % 0 mm
08:05 15.5 °C 15.3 °C 1008.7 hPa Calm   8 km/h 99 % 0 mm
08:10 15.5 °C 15.3 °C 1009 hPa SSW 1.6 km/h 6.4 km/h 99 % 0 mm
08:15 15.6 °C 15.4 °C 1009 hPa SSE 4.8 km/h 8 km/h 99 % 0 mm
08:20 15.5 °C 15.3 °C 1009.4 hPa SSW 6.4 km/h 8 km/h 99 % 0 mm
08:25 15.6 °C 15.4 °C 1009.4 hPa South 3.2 km/h 11.3 km/h 99 % 0 mm
08:30 15.6 °C 15.4 °C 1009.4 hPa SW 3.2 km/h 11.3 km/h 99 % 0 mm
08:35 15.6 °C 15.4 °C 1009.4 hPa Calm   11.3 km/h 99 % 0 mm
08:40 15.7 °C 15.5 °C 1009.7 hPa Calm   8 km/h 99 % 0 mm
08:45 15.7 °C 15.5 °C 1009.7 hPa SW 1.6 km/h 8 km/h 99 % 0 mm
08:50 15.8 °C 15.6 °C 1009.7 hPa SW 1.6 km/h 9.7 km/h 99 % 0 mm
08:55 15.8 °C 15.6 °C 1010 hPa SSW 1.6 km/h 9.7 km/h 99 % 0 mm
09:00 15.9 °C 15.7 °C 1010 hPa SSW 6.4 km/h 11.3 km/h 99 % 0 mm
09:05 15.9 °C 15.6 °C 1010 hPa SSW 1.6 km/h 14.5 km/h 98 % 0 mm
09:10 15.9 °C 15.6 °C 1010 hPa SSW 8 km/h 14.5 km/h 98 % 0 mm
09:40 16.2 °C 15.9 °C 1010 hPa SSW 4.8 km/h 19.3 km/h 98 % 0 mm
09:45 16.3 °C 16 °C 1010 hPa South 6.4 km/h 14.5 km/h 98 % 0 mm
09:51 16.4 °C 16.1 °C 1010 hPa South 4.8 km/h 14.5 km/h 98 % 0 mm
09:56 16.4 °C 15.9 °C 1010 hPa SW 6.4 km/h 14.5 km/h 97 % 0 mm
10:01 16.6 °C 16.1 °C 1010 hPa SSW 3.2 km/h 14.5 km/h 97 % 0 mm
10:06 16.6 °C 16.1 °C 1010 hPa South 4.8 km/h 11.3 km/h 97 % 0 mm
10:11 16.7 °C 16.2 °C 1010 hPa SSW 3.2 km/h 11.3 km/h 97 % 0 mm
10:16 17.1 °C 16.8 °C 1009.7 hPa SW 3.2 km/h 11.3 km/h 98 % 0 mm
10:21 17.5 °C 17.2 °C 1009.7 hPa SE 3.2 km/h 9.7 km/h 98 % 0 mm
10:26 17.9 °C 17.4 °C 1009.7 hPa North 1.6 km/h 6.4 km/h 97 % 0 mm
10:31 18.1 °C 17.5 °C 1009.7 hPa WNW 1.6 km/h 6.4 km/h 96 % 0 mm
10:36 18.2 °C 17.4 °C 1009.7 hPa SSW 1.6 km/h 4.8 km/h 95 % 0 mm
10:46 18.6 °C 17.6 °C 1009.4 hPa SSW 1.6 km/h 3.2 km/h 94 % 0 mm
10:51 18.8 °C 17.6 °C 1009.4 hPa SW 1.6 km/h 4.8 km/h 93 % 0 mm
10:56 19.2 °C 18 °C 1009.4 hPa Calm   6.4 km/h 93 % 0 mm
11:01 19.6 °C 18.3 °C 1009.4 hPa WSW 1.6 km/h 8 km/h 92 % 0 mm
11:06 20.1 °C 18.4 °C 1009.4 hPa WSW 1.6 km/h 8 km/h 90 % 0 mm
11:11 20.5 °C 18.6 °C 1009.4 hPa SSE 3.2 km/h 8 km/h 89 % 0 mm
11:16 20.8 °C 18.6 °C 1009 hPa Calm   8 km/h 87 % 0 mm
11:21 21.1 °C 18.7 °C 1009 hPa Calm   3.2 km/h 86 % 0 mm
11:26 21 °C 18.2 °C 1009 hPa SW 1.6 km/h 8 km/h 84 % 0 mm
11:31 21.2 °C 18.6 °C 1008.7 hPa East 4.8 km/h 8 km/h 85 % 0 mm
11:36 21.4 °C 18.8 °C 1008.7 hPa SE 6.4 km/h 8 km/h 85 % 0 mm
11:41 21.6 °C 18.8 °C 1008.7 hPa SE 3.2 km/h 8 km/h 84 % 0 mm
11:46 21.7 °C 18.5 °C 1008.4 hPa Calm   8 km/h 82 % 0 mm
11:51 22.1 °C 19.1 °C 1008.4 hPa WNW 1.6 km/h 8 km/h 83 % 0 mm
11:56 22.5 °C 19.1 °C 1008.4 hPa NW 1.6 km/h 8 km/h 81 % 0 mm
12:01 22.7 °C 19.1 °C 1008.4 hPa NW 3.2 km/h 8 km/h 80 % 0 mm
12:06 23.1 °C 19.5 °C 1008.4 hPa ESE 4.8 km/h 8 km/h 80 % 0 mm
12:11 23.2 °C 19.6 °C 1008 hPa WNW 4.8 km/h 4.8 km/h 80 % 0 mm
12:16 23.4 °C 19.5 °C 1008 hPa SW 3.2 km/h 6.4 km/h 79 % 0 mm
12:21 23.7 °C 19.4 °C 1008 hPa SSW 1.6 km/h 11.3 km/h 77 % 0 mm
12:26 23.7 °C 19.2 °C 1007.7 hPa NW 3.2 km/h 11.3 km/h 76 % 0 mm
12:31 23.7 °C 19.6 °C 1007.3 hPa SE 1.6 km/h 11.3 km/h 78 % 0 mm
12:36 23.8 °C 19.7 °C 1007.3 hPa Calm   6.4 km/h 78 % 0 mm
12:41 24 °C 19.5 °C 1007 hPa NNW 4.8 km/h 6.4 km/h 76 % 0 mm
12:46 23.8 °C 19.3 °C 1007 hPa WSW 3.2 km/h 8 km/h 76 % 0 mm
12:51 23.9 °C 19.6 °C 1007 hPa SSW 3.2 km/h 8 km/h 77 % 0 mm
12:56 24.3 °C 19.6 °C 1006.7 hPa Calm   8 km/h 75 % 0 mm
13:01 24.3 °C 19.4 °C 1006.7 hPa NW 1.6 km/h 6.4 km/h 74 % 0 mm
13:06 24.4 °C 19.7 °C 1006.3 hPa WNW 6.4 km/h 6.4 km/h 75 % 0 mm
13:11 23.9 °C 19 °C 1006.3 hPa NW 1.6 km/h 9.7 km/h 74 % 0 mm
13:16 24.1 °C 19.6 °C 1006.3 hPa Calm   9.7 km/h 76 % 0 mm
13:21 24.4 °C 19.7 °C 1006.3 hPa NW 1.6 km/h 9.7 km/h 75 % 0 mm
13:26 24.4 °C 19.7 °C 1006.3 hPa Calm   6.4 km/h 75 % 0 mm
13:31 24.2 °C 19.3 °C 1006 hPa West 8 km/h 8 km/h 74 % 0 mm
13:36 24.1 °C 19.6 °C 1006 hPa West 1.6 km/h 8 km/h 76 % 0 mm
13:41 24.1 °C 19.2 °C 1006 hPa SW 1.6 km/h 8 km/h 74 % 0 mm
13:46 24.3 °C 19.6 °C 1005.6 hPa Calm   9.7 km/h 75 % 0 mm
13:52 24.6 °C 19.7 °C 1005.6 hPa Calm   9.7 km/h 74 % 0 mm
13:57 24.7 °C 19.8 °C 1005.6 hPa West 1.6 km/h 9.7 km/h 74 % 0 mm
14:01 24.4 °C 19.2 °C 1005.6 hPa NW 3.2 km/h 8 km/h 73 % 0 mm
14:06 24.2 °C 19.7 °C 1005.6 hPa SW 1.6 km/h 8 km/h 76 % 0 mm
14:12 24.3 °C 19.6 °C 1005.6 hPa NW 1.6 km/h 8 km/h 75 % 0 mm
14:17 24.4 °C 19.7 °C 1005.6 hPa Calm   8 km/h 75 % 0 mm
14:22 24.6 °C 19.4 °C 1005.3 hPa NW 4.8 km/h 6.4 km/h 73 % 0 mm
14:27 24.3 °C 19.4 °C 1005.3 hPa Calm   6.4 km/h 74 % 0 mm
14:32 24.2 °C 19.5 °C 1005.3 hPa NW 3.2 km/h 6.4 km/h 75 % 0 mm
14:37 24.1 °C 19.4 °C 1005.3 hPa NW 3.2 km/h 6.4 km/h 75 % 0 mm
14:42 24 °C 19.3 °C 1005 hPa West 3.2 km/h 8 km/h 75 % 0 mm
14:47 24.1 °C 19.4 °C 1005.3 hPa NW 3.2 km/h 8 km/h 75 % 0 mm
14:52 24.3 °C 19.1 °C 1005 hPa West 1.6 km/h 8 km/h 73 % 0 mm
14:57 24.3 °C 19.4 °C 1005 hPa SW 8 km/h 8 km/h 74 % 0 mm
15:01 24.4 °C 19.2 °C 1005 hPa West 1.6 km/h 8 km/h 73 % 0 mm
15:06 24.3 °C 18.9 °C 1005 hPa West 1.6 km/h 8 km/h 72 % 0 mm
15:11 24.4 °C 19.2 °C 1004.6 hPa SW 3.2 km/h 8 km/h 73 % 0 mm
15:16 24.3 °C 18.9 °C 1004.6 hPa Calm   6.4 km/h 72 % 0 mm
15:22 24.2 °C 18.2 °C 1004.6 hPa NW 3.2 km/h 6.4 km/h 69 % 0 mm
15:27 24.1 °C 18.3 °C 1004.6 hPa Calm   6.4 km/h 70 % 0 mm
15:32 24 °C 18.2 °C 1004.3 hPa Calm   4.8 km/h 70 % 0 mm
15:37 23.8 °C 18 °C 1004.3 hPa Calm   4.8 km/h 70 % 0 mm
15:42 23.7 °C 18.1 °C 1004.6 hPa Calm   3.2 km/h 71 % 0 mm
15:47 23.7 °C 18.1 °C 1004.3 hPa Calm   3.2 km/h 71 % 0 mm
15:52 23.6 °C 18.3 °C 1004.3 hPa NW 3.2 km/h 3.2 km/h 72 % 0 mm
15:57 23.5 °C 18.4 °C 1004.6 hPa Calm   3.2 km/h 73 % 0 mm
16:07 23.4 °C 18.5 °C 1004.6 hPa East 1.6 km/h 4.8 km/h 74 % 0 mm
16:12 23.3 °C 18.4 °C 1004.6 hPa ESE 3.2 km/h 4.8 km/h 74 % 0 mm
16:17 23.2 °C 18.7 °C 1005 hPa South 3.2 km/h 4.8 km/h 76 % 0 mm
16:22 22.9 °C 18.4 °C 1005 hPa SE 4.8 km/h 4.8 km/h 76 % 0 mm
16:27 22.8 °C 18.3 °C 1005 hPa SSE 4.8 km/h 8 km/h 76 % 0 mm
16:32 22.7 °C 18.5 °C 1005.3 hPa SSW 3.2 km/h 8 km/h 77 % 0 mm
16:37 22.6 °C 18.4 °C 1005.3 hPa South 1.6 km/h 8 km/h 77 % 0 mm
16:42 22.4 °C 18.2 °C 1005.6 hPa SSE 1.6 km/h 6.4 km/h 77 % 0 mm
16:47 22.4 °C 18.4 °C 1004.6 hPa SE 9.7 km/h 9.7 km/h 78 % 0 mm
16:52 22.4 °C 18.8 °C 1003.6 hPa ESE 11.3 km/h 14.5 km/h 80 % 0 mm
16:57 22.1 °C 18.9 °C 1003.6 hPa East 4.8 km/h 16.1 km/h 82 % 0 mm
17:02 21.8 °C 18.8 °C 1003.9 hPa SSW 4.8 km/h 16.1 km/h 83 % 0 mm
17:07 21.6 °C 18.8 °C 1004.3 hPa ESE 4.8 km/h 16.1 km/h 84 % 0 mm
17:12 21.5 °C 18.7 °C 1004.3 hPa North 3.2 km/h 12.9 km/h 84 % 0.25 mm
17:17 21.5 °C 18.7 °C 1003.9 hPa ESE 3.2 km/h 12.9 km/h 84 % 0.25 mm
17:22 21.4 °C 18.6 °C 1003.9 hPa NE 3.2 km/h 6.4 km/h 84 % 0.25 mm
17:27 21.3 °C 18.7 °C 1003.9 hPa Calm   8 km/h 85 % 0.25 mm
17:32 21.1 °C 18.9 °C 1005 hPa SW 1.6 km/h 8 km/h 87 % 0.25 mm
17:37 20.9 °C 18.8 °C 1005 hPa WNW 1.6 km/h 8 km/h 88 % 0.51 mm
17:42 20.7 °C 18.8 °C 1005 hPa West 1.6 km/h 6.4 km/h 89 % 1.02 mm
17:47 20.4 °C 18.9 °C 1005 hPa West 3.2 km/h 8 km/h 91 % 1.52 mm
17:52 20.2 °C 18.7 °C 1005 hPa Calm   8 km/h 91 % 1.52 mm
17:57 20.2 °C 18.9 °C 1004.6 hPa ESE 3.2 km/h 8 km/h 92 % 2.03 mm
18:02 20 °C 18.7 °C 1004.3 hPa Calm   4.8 km/h 92 % 2.03 mm
18:07 19.9 °C 18.7 °C 1004.3 hPa ESE 4.8 km/h 4.8 km/h 93 % 2.54 mm
18:12 19.9 °C 18.9 °C 1003.9 hPa East 1.6 km/h 4.8 km/h 94 % 2.29 mm
18:17 19.8 °C 18.8 °C 1003.9 hPa East 1.6 km/h 4.8 km/h 94 % 2.29 mm
18:22 19.8 °C 18.8 °C 1004.3 hPa ESE 6.4 km/h 6.4 km/h 94 % 2.54 mm
18:27 19.7 °C 18.9 °C 1003.9 hPa Calm   9.7 km/h 95 % 2.54 mm
18:32 19.6 °C 18.8 °C 1004.3 hPa ESE 3.2 km/h 9.7 km/h 95 % 2.29 mm
18:37 19.6 °C 18.8 °C 1004.3 hPa Calm   9.7 km/h 95 % 2.29 mm
18:42 19.5 °C 18.7 °C 1004.3 hPa Calm   4.8 km/h 95 % 1.78 mm
18:47 19.5 °C 18.7 °C 1003.9 hPa Calm   4.8 km/h 95 % 1.27 mm
18:52 19.4 °C 18.7 °C 1003.9 hPa Calm   3.2 km/h 96 % 1.27 mm
18:57 19.4 °C 18.7 °C 1004.3 hPa ESE 1.6 km/h 4.8 km/h 96 % 1.02 mm
19:02 19.4 °C 18.7 °C 1004.3 hPa East 3.2 km/h 8 km/h 96 % 0.76 mm
19:07 19.4 °C 18.7 °C 1004.3 hPa SE 3.2 km/h 8 km/h 96 % 0.51 mm
19:12 19.3 °C 18.6 °C 1004.3 hPa SE 4.8 km/h 8 km/h 96 % 0.51 mm
19:17 19.3 °C 18.6 °C 1003.9 hPa ESE 1.6 km/h 8 km/h 96 % 0.51 mm
19:22 19.2 °C 18.5 °C 1004.3 hPa Calm   8 km/h 96 % 0.25 mm
19:27 19.2 °C 18.5 °C 1004.3 hPa SE 1.6 km/h 6.4 km/h 96 % 0.25 mm
19:32 19.2 °C 18.5 °C 1004.3 hPa SE 3.2 km/h 3.2 km/h 96 % 0.25 mm
19:37 19.1 °C 18.4 °C 1004.6 hPa ESE 1.6 km/h 4.8 km/h 96 % 0.25 mm
19:42 19.1 °C 18.4 °C 1004.6 hPa SE 1.6 km/h 4.8 km/h 96 % 0.25 mm
19:47 19.1 °C 18.4 °C 1004.6 hPa Calm   4.8 km/h 96 % 0 mm
19:52 19 °C 18.3 °C 1004.6 hPa SE 1.6 km/h 3.2 km/h 96 % 0 mm
19:57 19 °C 18.5 °C 1005 hPa SSE 3.2 km/h 6.4 km/h 97 % 0 mm
20:02 19 °C 18.5 °C 1005 hPa SE 4.8 km/h 6.4 km/h 97 % 0 mm
20:07 19 °C 18.5 °C 1005 hPa ESE 4.8 km/h 6.4 km/h 97 % 0 mm
20:12 18.9 °C 18.4 °C 1005 hPa ESE 4.8 km/h 6.4 km/h 97 % 0 mm
20:17 18.9 °C 18.4 °C 1005 hPa SE 1.6 km/h 6.4 km/h 97 % 0 mm
20:22 18.9 °C 18.2 °C 1005 hPa SE 3.2 km/h 6.4 km/h 96 % 0 mm
20:27 18.9 °C 18.2 °C 1005 hPa SE 3.2 km/h 6.4 km/h 96 % 0 mm
20:32 18.8 °C 18.1 °C 1005 hPa Calm   8 km/h 96 % 0 mm
20:37 18.8 °C 18.1 °C 1005 hPa SSE 1.6 km/h 8 km/h 96 % 0 mm
20:42 18.7 °C 18 °C 1005 hPa ESE 3.2 km/h 8 km/h 96 % 0 mm
20:47 18.7 °C 18 °C 1005 hPa ESE 4.8 km/h 8 km/h 96 % 0 mm
20:52 18.6 °C 17.9 °C 1005 hPa ESE 3.2 km/h 8 km/h 96 % 0 mm
20:57 18.6 °C 17.9 °C 1005 hPa SE 4.8 km/h 8 km/h 96 % 0 mm
21:02 18.6 °C 17.8 °C 1005 hPa ESE 8 km/h 9.7 km/h 95 % 0 mm
21:07 18.6 °C 17.8 °C 1005 hPa SE 4.8 km/h 9.7 km/h 95 % 0 mm
21:12 18.6 °C 17.9 °C 1005 hPa ESE 6.4 km/h 9.7 km/h 96 % 0 mm
21:17 18.6 °C 17.9 °C 1005 hPa SE 4.8 km/h 9.7 km/h 96 % 0 mm
21:22 18.6 °C 17.9 °C 1004.6 hPa SE 4.8 km/h 9.7 km/h 96 % 0 mm
21:27 18.6 °C 17.9 °C 1004.6 hPa SE 8 km/h 9.7 km/h 96 % 0 mm
21:32 18.6 °C 17.9 °C 1004.6 hPa SSE 4.8 km/h 11.3 km/h 96 % 0 mm
21:37 18.6 °C 17.9 °C 1004.3 hPa SSE 3.2 km/h 11.3 km/h 96 % 0 mm
21:42 18.5 °C 17.8 °C 1004.6 hPa ESE 4.8 km/h 11.3 km/h 96 % 0 mm
21:47 18.5 °C 17.8 °C 1004.3 hPa East 4.8 km/h 9.7 km/h 96 % 0 mm
21:52 18.4 °C 17.8 °C 1003.9 hPa ESE 3.2 km/h 8 km/h 96 % 0 mm
21:57 18.3 °C 17.7 °C 1003.9 hPa ESE 4.8 km/h 9.7 km/h 96 % 0 mm
22:02 18.3 °C 17.7 °C 1003.9 hPa SE 6.4 km/h 9.7 km/h 96 % 0 mm
22:07 18.3 °C 17.5 °C 1003.9 hPa ESE 3.2 km/h 9.7 km/h 95 % 0 mm
22:12 18.3 °C 17.5 °C 1003.3 hPa ESE 4.8 km/h 9.7 km/h 95 % 0 mm
22:17 18.2 °C 17.4 °C 1003.9 hPa SE 6.4 km/h 9.7 km/h 95 % 0 mm
22:22 18.2 °C 17.4 °C 1003.9 hPa ESE 1.6 km/h 9.7 km/h 95 % 0 mm
22:27 18.2 °C 17.4 °C 1004.3 hPa Calm   9.7 km/h 95 % 0 mm
22:32 18.2 °C 17.4 °C 1004.3 hPa South 1.6 km/h 9.7 km/h 95 % 0 mm
22:37 18.2 °C 17.6 °C 1004.6 hPa NNW 1.6 km/h 6.4 km/h 96 % 0.25 mm
22:42 18.2 °C 17.6 °C 1004.3 hPa WNW 6.4 km/h 11.3 km/h 96 % 0.25 mm
22:47 18.2 °C 17.6 °C 1005 hPa NW 1.6 km/h 12.9 km/h 96 % 0.25 mm
22:52 18.2 °C 17.6 °C 1005 hPa Calm   12.9 km/h 96 % 0.51 mm
22:57 18.2 °C 17.6 °C 1005 hPa NNW 1.6 km/h 12.9 km/h 96 % 2.54 mm
23:02 18.2 °C 17.6 °C 1004.6 hPa NE 1.6 km/h 8 km/h 96 % 5.33 mm
23:07 18.2 °C 17.6 °C 1004.3 hPa ESE 1.6 km/h 6.4 km/h 96 % 8.38 mm
23:12 18.2 °C 17.6 °C 1004.3 hPa Calm   6.4 km/h 96 % 10.92 mm
23:17 18.1 °C 17.6 °C 1004.3 hPa NNW 3.2 km/h 6.4 km/h 97 % 11.18 mm
23:22 18.1 °C 17.6 °C 1004.3 hPa Calm   6.4 km/h 97 % 11.18 mm
23:27 18 °C 17.5 °C 1004.3 hPa Calm   4.8 km/h 97 % 11.18 mm
23:32 17.9 °C 17.4 °C 1004.3 hPa SE 3.2 km/h 4.8 km/h 97 % 11.18 mm
23:37 17.9 °C 17.4 °C 1004.6 hPa SE 1.6 km/h 3.2 km/h 97 % 10.92 mm
23:42 17.9 °C 17.4 °C 1004.6 hPa Calm   3.2 km/h 97 % 10.92 mm
23:47 17.8 °C 17.3 °C 1004.3 hPa Calm   3.2 km/h 97 % 10.92 mm
23:52 17.8 °C 17.3 °C 1004.3 hPa Calm   3.2 km/h 97 % 10.67 mm
23:57 17.7 °C 17.2 °C 1004.6 hPa Calm   3.2 km/h 97 % 8.64 mm
Spring, Texas: Villages of Bridgestone
Compliments of Weather Underground - 2.75 mb

Script developed by  Jim McMurry - jmcmurry@mwt.net Adapted for the template by  Wim van der Kuil - Leuven-Template.eu

You find our weather info also at:

UK Metoffice

WeatherCloud

Weather Underground

Mid-South Weather Network

AWEKAS

Citizen Weather Observer Program (CWOP)

HAMweather, WeatherForYou, PWS Weather

Equipment we use:

Weather-station
Davis Vantage Vue

Weather-program
Meteohub

Weather-server
Debian 7.9 x86 (Guest)

Provider
DreamHost

Davis Vantage Vue

Meteohub

Debian 7.9 x86 (Guest)

DreamHost